Location: Skalnate Pleso
(49.1889°N, 20.2450°E)
Time: 11:41:25
(UTC+01:00)

Cosmos 1484 Rocket - Pass Details

Date: 19 November 2019
Orbit: 507 x 559 km, 97.4° (Epoch: 08 December)

Event Time Altitude Azimuth Distance (km) Brightness Sun altitude
Rises 04:40:36 0° 14° (NNE) 2,752 6.5 -21.6°
Reaches altitude 10° 04:42:45 10° 17° (NNE) 1,855 5.6 -21.2°
Maximum altitude 04:46:46 69° 101° (ESE) 603 3.1 -20.6°
Drops below altitude 10° 04:50:45 10° 186° (S) 1,842 5.5 -19.9°
Sets 04:52:53 0° 189° (S) 2,730 6.4 -19.6°
